Time,TemperatureF,DewpointF,PressureIn,WindDirection,WindDirectionDegrees,WindSpeedMPH,WindSpeedGustMPH,Humidity,HourlyPrecipIn,Conditions,Clouds,dailyrainin,SoftwareType,DateUTC
2013-01-09 00:00:00,34.8,31.3,29.97,South,185,9.0,21.0,87,0.00,,---,0.00,VWS V14.01,2013-01-09 05:00:00,
2013-01-09 00:01:00,34.8,31.3,29.97,South,178,9.0,21.0,87,0.00,,---,0.00,VWS V14.01,2013-01-09 05:01:00,
2013-01-09 00:06:00,34.9,31.1,29.97,SSE,167,7.0,21.0,86,0.00,,---,0.00,VWS V14.01,2013-01-09 05:06:00,
2013-01-09 00:12:00,34.8,31.0,29.96,South,171,17.0,21.0,86,0.00,,---,0.00,VWS V14.01,2013-01-09 05:12:00,
2013-01-09 00:17:00,34.8,31.0,29.96,South,183,9.0,21.0,86,0.00,,---,0.00,VWS V14.01,2013-01-09 05:17:00,
2013-01-09 00:22:00,34.8,31.0,29.95,South,172,6.0,21.0,86,0.00,,---,0.00,VWS V14.01,2013-01-09 05:22:00,
2013-01-09 00:27:00,34.7,31.0,29.95,South,173,7.0,21.0,86,0.00,,---,0.00,VWS V14.01,2013-01-09 05:27:00,
2013-01-09 00:32:00,34.6,30.9,29.95,South,173,4.0,10.0,86,0.00,,---,0.00,VWS V14.01,2013-01-09 05:32:00,
2013-01-09 00:37:00,34.5,30.8,29.95,South,177,12.0,18.0,86,0.00,,---,0.00,VWS V14.01,2013-01-09 05:37:00,
2013-01-09 00:42:00,34.4,30.6,29.95,South,182,23.0,23.0,86,0.00,,---,0.00,VWS V14.01,2013-01-09 05:42:00,
2013-01-09 00:47:00,34.6,30.9,29.95,South,183,22.0,23.0,86,0.00,,---,0.00,VWS V14.01,2013-01-09 05:47:00,
2013-01-09 00:52:00,34.5,30.8,29.94,SSE,162,13.0,23.0,86,0.00,,---,0.00,VWS V14.01,2013-01-09 05:52:00,
2013-01-09 00:57:00,34.5,30.5,29.94,SSW,199,13.0,23.0,85,0.00,,---,0.00,VWS V14.01,2013-01-09 05:57:00,
2013-01-09 01:02:00,34.5,30.5,29.94,South,181,12.0,23.0,85,0.00,,---,0.00,VWS V14.01,2013-01-09 06:02:00,
2013-01-09 01:07:00,34.4,30.4,29.94,South,181,9.0,23.0,85,0.00,,---,0.00,VWS V14.01,2013-01-09 06:07:00,
2013-01-09 01:12:00,34.4,30.4,29.94,South,187,13.0,23.0,85,0.00,,---,0.00,VWS V14.01,2013-01-09 06:12:00,
2013-01-09 01:17:00,34.4,30.4,29.94,South,185,14.0,23.0,85,0.00,,---,0.00,VWS V14.01,2013-01-09 06:17:00,
2013-01-09 01:22:00,34.4,30.4,29.93,SSW,196,10.0,23.0,85,0.00,,---,0.00,VWS V14.01,2013-01-09 06:22:00,
2013-01-09 01:27:00,34.5,30.2,29.92,South,172,7.0,23.0,84,0.00,,---,0.00,VWS V14.01,2013-01-09 06:27:00,
2013-01-09 01:32:00,34.4,30.1,29.92,South,176,6.0,6.0,84,0.00,,---,0.00,VWS V14.01,2013-01-09 06:32:00,
2013-01-09 01:37:00,34.5,30.2,29.92,SSW,192,4.0,19.0,84,0.00,,---,0.00,VWS V14.01,2013-01-09 06:37:00,
2013-01-09 01:42:00,34.6,30.3,29.92,South,179,5.0,19.0,84,0.00,,---,0.00,VWS V14.01,2013-01-09 06:42:00,
2013-01-09 01:47:00,34.6,30.3,29.91,South,175,7.0,19.0,84,0.00,,---,0.00,VWS V14.01,2013-01-09 06:47:00,
2013-01-09 01:52:00,34.6,30.3,29.91,SSW,203,10.0,19.0,84,0.00,,---,0.00,VWS V14.01,2013-01-09 06:52:00,
2013-01-09 01:57:00,34.7,30.1,29.91,SSW,202,10.0,19.0,83,0.00,,---,0.00,VWS V14.01,2013-01-09 06:57:00,
2013-01-09 02:02:00,34.7,30.1,29.90,SSW,200,10.0,19.0,83,0.00,,---,0.00,VWS V14.01,2013-01-09 07:02:00,
2013-01-09 02:07:00,34.8,30.2,29.90,SSW,204,3.0,19.0,83,0.00,,---,0.00,VWS V14.01,2013-01-09 07:07:00,
2013-01-09 02:12:00,34.8,29.9,29.90,South,183,6.0,19.0,82,0.00,,---,0.00,VWS V14.01,2013-01-09 07:12:00,
2013-01-09 02:17:00,34.7,29.8,29.89,South,183,6.0,19.0,82,0.00,,---,0.00,VWS V14.01,2013-01-09 07:17:00,
2013-01-09 02:22:00,34.6,30.0,29.89,SSE,162,4.0,19.0,83,0.00,,---,0.00,VWS V14.01,2013-01-09 07:22:00,
2013-01-09 02:27:00,34.7,29.8,29.89,South,179,5.0,19.0,82,0.00,,---,0.00,VWS V14.01,2013-01-09 07:27:00,
2013-01-09 02:32:00,34.7,29.8,29.87,SW,221,5.0,7.0,82,0.00,,---,0.00,VWS V14.01,2013-01-09 07:32:00,
2013-01-09 02:37:00,34.9,29.7,29.87,SSW,198,5.0,10.0,81,0.00,,---,0.00,VWS V14.01,2013-01-09 07:37:00,
2013-01-09 02:42:00,35.3,29.8,29.87,SSW,208,8.0,13.0,80,0.00,,---,0.00,VWS V14.01,2013-01-09 07:42:00,
2013-01-09 02:47:00,35.6,29.7,29.86,SSW,195,10.0,17.0,79,0.00,,---,0.00,VWS V14.01,2013-01-09 07:47:00,
2013-01-09 02:52:00,35.9,29.7,29.85,SSE,163,9.0,17.0,78,0.00,,---,0.00,VWS V14.01,2013-01-09 07:52:00,
2013-01-09 02:58:00,35.9,29.4,29.84,South,186,10.0,20.0,77,0.00,,---,0.00,VWS V14.01,2013-01-09 07:58:00,
2013-01-09 03:03:00,35.9,29.4,29.85,SSW,192,11.0,22.0,77,0.00,,---,0.00,VWS V14.01,2013-01-09 08:03:00,
2013-01-09 03:08:00,36.0,29.5,29.85,SSW,195,16.0,22.0,77,0.00,,---,0.00,VWS V14.01,2013-01-09 08:08:00,
2013-01-09 03:13:00,36.0,29.5,29.86,SSW,199,7.0,25.0,77,0.00,,---,0.00,VWS V14.01,2013-01-09 08:13:00,
2013-01-09 03:18:00,36.0,29.5,29.84,South,175,6.0,25.0,77,0.00,,---,0.00,VWS V14.01,2013-01-09 08:18:00,
2013-01-09 03:23:00,35.9,29.4,29.85,South,177,18.0,25.0,77,0.00,,---,0.00,VWS V14.01,2013-01-09 08:23:00,
2013-01-09 03:28:00,35.9,29.4,29.84,SSW,192,11.0,25.0,77,0.00,,---,0.00,VWS V14.01,2013-01-09 08:28:00,
2013-01-09 03:33:00,36.0,29.2,29.84,South,180,16.0,18.0,76,0.00,,---,0.00,VWS V14.01,2013-01-09 08:33:00,
2013-01-09 03:38:00,36.0,29.2,29.85,South,183,15.0,20.0,76,0.00,,---,0.00,VWS V14.01,2013-01-09 08:38:00,
2013-01-09 03:43:00,36.0,29.2,29.84,SSW,205,18.0,22.0,76,0.00,,---,0.00,VWS V14.01,2013-01-09 08:43:00,
2013-01-09 03:48:00,36.0,29.2,29.84,South,181,8.0,22.0,76,0.00,,---,0.00,VWS V14.01,2013-01-09 08:48:00,
2013-01-09 03:53:00,36.0,29.2,29.82,South,180,10.0,22.0,76,0.00,,---,0.00,VWS V14.01,2013-01-09 08:53:00,
2013-01-09 03:58:00,36.0,29.2,29.83,SW,224,7.0,22.0,76,0.00,,---,0.00,VWS V14.01,2013-01-09 08:58:00,
2013-01-09 04:03:00,36.0,29.2,29.82,SSW,192,8.0,22.0,76,0.00,,---,0.00,VWS V14.01,2013-01-09 09:03:00,
2013-01-09 04:08:00,36.0,29.2,29.83,SSW,210,9.0,22.0,76,0.00,,---,0.00,VWS V14.01,2013-01-09 09:08:00,
2013-01-09 04:13:00,36.0,29.2,29.83,WSW,239,13.0,22.0,76,0.00,,---,0.00,VWS V14.01,2013-01-09 09:13:00,
2013-01-09 04:18:00,36.0,29.5,29.83,SW,219,17.0,22.0,77,0.00,,---,0.00,VWS V14.01,2013-01-09 09:18:00,
2013-01-09 04:23:00,35.8,29.6,29.83,South,179,4.0,22.0,78,0.00,,---,0.00,VWS V14.01,2013-01-09 09:23:00,
2013-01-09 04:28:00,35.4,30.2,29.83,South,189,27.0,27.0,81,0.00,,---,0.00,VWS V14.01,2013-01-09 09:28:00,
2013-01-09 04:33:00,35.0,30.1,29.82,SSW,198,5.0,16.0,82,0.00,,---,0.00,VWS V14.01,2013-01-09 09:33:00,
2013-01-09 04:38:00,34.8,29.9,29.81,SSW,192,10.0,16.0,82,0.00,,---,0.00,VWS V14.01,2013-01-09 09:38:00,
2013-01-09 04:43:00,34.9,30.0,29.81,SW,225,10.0,17.0,82,0.00,,---,0.00,VWS V14.01,2013-01-09 09:43:00,
2013-01-09 04:48:00,34.9,30.0,29.81,South,185,11.0,21.0,82,0.00,,---,0.00,VWS V14.01,2013-01-09 09:48:00,
2013-01-09 04:53:00,35.0,30.1,29.80,South,180,10.0,21.0,82,0.00,,---,0.00,VWS V14.01,2013-01-09 09:53:00,
2013-01-09 04:58:00,35.0,30.1,29.79,SSW,192,17.0,21.0,82,0.00,,---,0.00,VWS V14.01,2013-01-09 09:58:00,
2013-01-09 05:03:00,35.1,30.2,29.79,South,175,9.0,22.0,82,0.00,,---,0.00,VWS V14.01,2013-01-09 10:03:00,
2013-01-09 05:08:00,35.3,30.4,29.79,South,179,19.0,23.0,82,0.00,,---,0.00,VWS V14.01,2013-01-09 10:08:00,
2013-01-09 05:13:00,35.3,30.1,29.79,South,185,20.0,23.0,81,0.00,,---,0.00,VWS V14.01,2013-01-09 10:13:00,
2013-01-09 05:18:00,35.4,30.2,29.79,SSW,210,10.0,23.0,81,0.00,,---,0.00,VWS V14.01,2013-01-09 10:18:00,
2013-01-09 05:23:00,35.4,30.2,29.78,South,184,15.0,23.0,81,0.00,,---,0.00,VWS V14.01,2013-01-09 10:23:00,
2013-01-09 05:28:00,35.3,30.4,29.78,South,174,13.0,23.0,82,0.00,,---,0.00,VWS V14.01,2013-01-09 10:28:00,
2013-01-09 05:34:00,35.2,30.6,29.77,SSW,196,19.0,22.0,83,0.00,,---,0.00,VWS V14.01,2013-01-09 10:34:00,
2013-01-09 05:39:00,35.2,30.6,29.77,South,186,28.0,28.0,83,0.00,,---,0.00,VWS V14.01,2013-01-09 10:39:00,
2013-01-09 05:44:00,35.2,30.9,29.77,South,191,10.0,28.0,84,0.00,,---,0.00,VWS V14.01,2013-01-09 10:44:00,
2013-01-09 05:49:00,35.1,30.8,29.76,SSW,202,19.0,28.0,84,0.00,,---,0.00,VWS V14.01,2013-01-09 10:49:00,
2013-01-09 05:54:00,35.3,31.0,29.76,SSW,208,16.0,28.0,84,0.00,,---,0.00,VWS V14.01,2013-01-09 10:54:00,
2013-01-09 05:59:00,35.4,31.1,29.75,SSW,203,14.0,28.0,84,0.00,,---,0.00,VWS V14.01,2013-01-09 10:59:00,
2013-01-09 06:04:00,35.5,31.1,29.75,SSW,200,15.0,28.0,84,0.00,,---,0.00,VWS V14.01,2013-01-09 11:04:00,
2013-01-09 06:09:00,35.6,31.2,29.75,South,186,10.0,28.0,84,0.00,,---,0.00,VWS V14.01,2013-01-09 11:09:00,
2013-01-09 06:14:00,35.7,31.4,29.75,South,182,14.0,28.0,84,0.00,,---,0.00,VWS V14.01,2013-01-09 11:14:00,
2013-01-09 06:19:00,35.8,31.5,29.75,SSW,206,20.0,28.0,84,0.00,,---,0.00,VWS V14.01,2013-01-09 11:19:00,
2013-01-09 06:24:00,35.9,31.5,29.76,SSW,202,16.0,28.0,84,0.00,,---,0.00,VWS V14.01,2013-01-09 11:24:00,
2013-01-09 06:29:00,35.9,31.5,29.75,South,183,16.0,28.0,84,0.00,,---,0.00,VWS V14.01,2013-01-09 11:29:00,
2013-01-09 06:34:00,35.9,31.5,29.76,SSW,198,11.0,20.0,84,0.00,,---,0.00,VWS V14.01,2013-01-09 11:34:00,
2013-01-09 06:39:00,36.0,31.4,29.76,SSW,204,9.0,23.0,83,0.00,,---,0.00,VWS V14.01,2013-01-09 11:39:00,
2013-01-09 06:44:00,36.0,31.4,29.75,SSW,192,15.0,23.0,83,0.00,,---,0.00,VWS V14.01,2013-01-09 11:44:00,
2013-01-09 06:49:00,36.1,31.5,29.75,South,180,12.0,23.0,83,0.00,,---,0.00,VWS V14.01,2013-01-09 11:49:00,
2013-01-09 06:54:00,36.2,31.5,29.75,SSW,208,14.0,23.0,83,0.00,,---,0.00,VWS V14.01,2013-01-09 11:54:00,
2013-01-09 06:59:00,36.2,31.5,29.75,SSW,204,8.0,25.0,83,0.00,,---,0.00,VWS V14.01,2013-01-09 11:59:00,
2013-01-09 07:04:00,36.3,31.6,29.75,SSW,193,18.0,25.0,83,0.00,,---,0.00,VWS V14.01,2013-01-09 12:04:00,
2013-01-09 07:09:00,36.2,31.8,29.75,SW,229,20.0,25.0,84,0.00,,---,0.00,VWS V14.01,2013-01-09 12:09:00,
2013-01-09 07:14:00,36.2,31.8,29.75,South,188,13.0,25.0,84,0.00,,---,0.00,VWS V14.01,2013-01-09 12:14:00,
2013-01-09 07:19:00,36.1,31.7,29.74,South,183,13.0,25.0,84,0.00,,---,0.00,VWS V14.01,2013-01-09 12:19:00,
2013-01-09 07:24:00,36.1,31.7,29.74,SSW,210,12.0,25.0,84,0.00,,---,0.00,VWS V14.01,2013-01-09 12:24:00,
2013-01-09 07:29:00,36.1,31.7,29.74,South,180,11.0,25.0,84,0.00,,---,0.00,VWS V14.01,2013-01-09 12:29:00,
2013-01-09 07:34:00,36.1,31.7,29.75,SW,214,11.0,21.0,84,0.00,,---,0.00,VWS V14.01,2013-01-09 12:34:00,
2013-01-09 07:39:00,36.1,31.7,29.74,South,191,9.0,21.0,84,0.00,,---,0.00,VWS V14.01,2013-01-09 12:39:00,
2013-01-09 07:44:00,36.1,31.7,29.74,SW,216,21.0,21.0,84,0.00,,---,0.00,VWS V14.01,2013-01-09 12:44:00,
2013-01-09 07:49:00,36.2,31.8,29.74,SSW,209,6.0,21.0,84,0.00,,---,0.00,VWS V14.01,2013-01-09 12:49:00,
2013-01-09 07:54:00,36.4,32.0,29.74,SSW,208,19.0,23.0,84,0.00,,---,0.00,VWS V14.01,2013-01-09 12:54:00,
2013-01-09 07:59:00,36.4,32.0,29.75,South,189,16.0,23.0,84,0.00,,---,0.00,VWS V14.01,2013-01-09 12:59:00,
2013-01-09 08:04:00,36.4,32.0,29.75,SSW,195,17.0,23.0,84,0.00,,---,0.00,VWS V14.01,2013-01-09 13:04:00,
2013-01-09 08:09:00,36.5,32.1,29.75,South,189,15.0,23.0,84,0.00,,---,0.00,VWS V14.01,2013-01-09 13:09:00,
2013-01-09 08:14:00,36.5,32.1,29.75,South,185,13.0,23.0,84,0.00,,---,0.00,VWS V14.01,2013-01-09 13:14:00,
2013-01-09 08:19:00,36.5,32.4,29.75,SW,227,14.0,23.0,85,0.00,,---,0.00,VWS V14.01,2013-01-09 13:19:00,
2013-01-09 08:24:00,36.5,32.4,29.75,SSW,193,6.0,23.0,85,0.00,,---,0.00,VWS V14.01,2013-01-09 13:24:00,
2013-01-09 08:30:00,36.5,32.4,29.75,SW,220,17.0,23.0,85,0.00,,---,0.00,VWS V14.01,2013-01-09 13:30:00,
2013-01-09 08:35:00,36.5,32.4,29.75,SSW,200,9.0,16.0,85,0.00,,---,0.00,VWS V14.01,2013-01-09 13:35:00,
2013-01-09 08:40:00,36.4,32.6,29.75,SW,219,8.0,16.0,86,0.00,,---,0.00,VWS V14.01,2013-01-09 13:40:00,
2013-01-09 08:45:00,36.2,32.7,29.75,South,191,8.0,16.0,87,0.00,,---,0.00,VWS V14.01,2013-01-09 13:45:00,
2013-01-09 08:50:00,36.2,33.0,29.76,SW,220,14.0,23.0,88,0.00,,---,0.00,VWS V14.01,2013-01-09 13:50:00,
2013-01-09 08:55:00,36.1,32.9,29.76,SW,229,12.0,23.0,88,0.00,,---,0.00,VWS V14.01,2013-01-09 13:55:00,
2013-01-09 09:00:00,36.2,33.3,29.75,SW,221,8.0,23.0,89,0.00,,---,0.00,VWS V14.01,2013-01-09 14:00:00,
2013-01-09 09:05:00,36.2,33.3,29.76,WSW,245,16.0,23.0,89,0.00,,---,0.00,VWS V14.01,2013-01-09 14:05:00,
2013-01-09 09:10:00,36.2,33.3,29.75,WSW,250,10.0,23.0,89,0.00,,---,0.00,VWS V14.01,2013-01-09 14:10:00,
2013-01-09 09:15:00,36.2,33.3,29.76,WSW,256,10.0,23.0,89,0.00,,---,0.00,VWS V14.01,2013-01-09 14:15:00,
2013-01-09 09:20:00,36.3,33.4,29.76,WSW,243,14.0,23.0,89,0.00,,---,0.00,VWS V14.01,2013-01-09 14:20:00,
2013-01-09 09:25:00,36.7,33.5,29.76,WSW,256,14.0,23.0,88,0.00,,---,0.00,VWS V14.01,2013-01-09 14:25:00,
2013-01-09 09:30:00,36.9,33.1,29.76,WSW,253,17.0,23.0,86,0.00,,---,0.00,VWS V14.01,2013-01-09 14:30:00,
2013-01-09 09:35:00,37.0,32.6,29.76,WSW,249,18.0,21.0,84,0.00,,---,0.00,VWS V14.01,2013-01-09 14:35:00,
2013-01-09 09:40:00,37.3,32.6,29.76,WSW,256,21.0,22.0,83,0.00,,---,0.00,VWS V14.01,2013-01-09 14:40:00,
2013-01-09 09:45:00,37.4,32.4,29.77,WSW,256,18.0,22.0,82,0.00,,---,0.00,VWS V14.01,2013-01-09 14:45:00,
2013-01-09 09:50:00,37.3,32.0,29.77,WSW,252,21.0,22.0,81,0.00,,---,0.00,VWS V14.01,2013-01-09 14:50:00,
2013-01-09 09:55:00,37.4,32.1,29.77,WSW,254,20.0,22.0,81,0.00,,---,0.00,VWS V14.01,2013-01-09 14:55:00,
2013-01-09 10:00:00,37.4,32.1,29.77,WSW,254,20.0,25.0,81,0.00,,---,0.00,VWS V14.01,2013-01-09 15:00:00,
2013-01-09 10:05:00,37.4,32.1,29.76,WSW,258,19.0,25.0,81,0.00,,---,0.00,VWS V14.01,2013-01-09 15:05:00,
2013-01-09 10:10:00,37.4,32.1,29.77,West,276,21.0,25.0,81,0.00,,---,0.00,VWS V14.01,2013-01-09 15:10:00,
2013-01-09 10:15:00,37.4,32.1,29.76,WSW,252,21.0,26.0,81,0.00,,---,0.00,VWS V14.01,2013-01-09 15:15:00,
2013-01-09 10:20:00,37.5,32.2,29.76,WSW,256,22.0,27.0,81,0.00,,---,0.00,VWS V14.01,2013-01-09 15:20:00,
2013-01-09 10:25:00,37.4,32.1,29.77,WSW,250,24.0,28.0,81,0.00,,---,0.00,VWS V14.01,2013-01-09 15:25:00,
2013-01-09 10:30:00,37.6,32.0,29.77,WSW,250,22.0,29.0,80,0.00,,---,0.00,VWS V14.01,2013-01-09 15:30:00,
2013-01-09 10:35:00,37.6,32.0,29.76,West,261,19.0,29.0,80,0.00,,---,0.00,VWS V14.01,2013-01-09 15:35:00,
2013-01-09 10:40:00,37.5,31.9,29.77,WSW,243,20.0,29.0,80,0.00,,---,0.00,VWS V14.01,2013-01-09 15:40:00,
2013-01-09 10:45:00,37.5,31.9,29.76,WSW,248,21.0,31.0,80,0.00,,---,0.00,VWS V14.01,2013-01-09 15:45:00,
2013-01-09 10:50:00,37.7,31.8,29.76,WSW,247,26.0,31.0,79,0.00,,---,0.00,VWS V14.01,2013-01-09 15:50:00,
2013-01-09 10:55:00,37.6,31.7,29.76,WSW,247,24.0,31.0,79,0.00,,---,0.00,VWS V14.01,2013-01-09 15:55:00,
2013-01-09 11:00:00,37.6,31.7,29.76,WSW,250,24.0,32.0,79,0.00,,---,0.00,VWS V14.01,2013-01-09 16:00:00,
2013-01-09 11:05:00,37.7,31.8,29.76,WSW,241,23.0,32.0,79,0.00,,---,0.00,VWS V14.01,2013-01-09 16:05:00,
2013-01-09 11:10:00,37.6,32.0,29.76,WSW,248,19.0,32.0,80,0.00,,---,0.00,VWS V14.01,2013-01-09 16:10:00,
2013-01-09 11:15:00,37.3,32.0,29.76,WSW,242,26.0,32.0,81,0.00,,---,0.00,VWS V14.01,2013-01-09 16:15:00,
2013-01-09 11:20:00,37.1,31.8,29.76,WSW,250,20.0,32.0,81,0.00,,---,0.00,VWS V14.01,2013-01-09 16:20:00,
2013-01-09 11:25:00,37.3,31.7,29.76,West,261,19.0,32.0,80,0.00,,---,0.00,VWS V14.01,2013-01-09 16:25:00,
2013-01-09 11:30:00,37.2,31.6,29.76,WSW,244,22.0,32.0,80,0.00,,---,0.00,VWS V14.01,2013-01-09 16:30:00,
2013-01-09 11:36:00,37.3,31.7,29.75,WSW,254,21.0,30.0,80,0.00,,---,0.00,VWS V14.01,2013-01-09 16:36:00,
2013-01-09 11:41:00,37.5,31.6,29.75,WSW,247,20.0,30.0,79,0.00,,---,0.00,VWS V14.01,2013-01-09 16:41:00,
2013-01-09 11:46:00,37.6,31.4,29.76,WSW,244,21.0,30.0,78,0.00,,---,0.00,VWS V14.01,2013-01-09 16:46:00,
2013-01-09 11:51:00,37.8,31.2,29.75,WSW,241,33.0,33.0,77,0.00,,---,0.00,VWS V14.01,2013-01-09 16:51:00,
2013-01-09 11:56:00,38.0,31.1,29.75,WSW,253,23.0,33.0,76,0.00,,---,0.00,VWS V14.01,2013-01-09 16:56:00,
2013-01-09 12:01:00,38.0,30.5,29.76,WSW,251,28.0,35.0,74,0.00,,---,0.00,VWS V14.01,2013-01-09 17:01:00,
2013-01-09 12:06:00,38.2,30.7,29.76,WSW,238,29.0,34.0,74,0.00,,---,0.00,VWS V14.01,2013-01-09 17:06:00,
2013-01-09 12:11:00,38.2,30.3,29.76,WSW,241,31.0,38.0,73,0.00,,---,0.00,VWS V14.01,2013-01-09 17:11:00,
2013-01-09 12:16:00,38.1,30.2,29.76,SW,230,36.0,40.0,73,0.00,,---,0.00,VWS V14.01,2013-01-09 17:16:00,
2013-01-09 12:21:00,37.9,29.7,29.76,WSW,242,26.0,40.0,72,0.00,,---,0.00,VWS V14.01,2013-01-09 17:21:00,
2013-01-09 12:26:00,37.8,29.9,29.76,SSW,205,40.0,40.0,73,0.00,,---,0.00,VWS V14.01,2013-01-09 17:26:00,
2013-01-09 12:31:00,37.7,30.8,29.76,SW,235,27.0,42.0,76,0.00,,---,0.00,VWS V14.01,2013-01-09 17:31:00,
2013-01-09 12:36:00,37.2,31.0,29.77,WSW,242,24.0,34.0,78,0.00,,---,0.00,VWS V14.01,2013-01-09 17:36:00,
2013-01-09 12:41:00,36.9,31.3,29.77,WSW,245,33.0,36.0,80,0.00,,---,0.00,VWS V14.01,2013-01-09 17:41:00,
2013-01-09 12:46:00,36.5,31.5,29.77,WSW,248,23.0,36.0,82,0.00,,---,0.00,VWS V14.01,2013-01-09 17:46:00,
2013-01-09 12:51:00,36.6,31.6,29.77,SW,225,42.0,42.0,82,0.00,,---,0.00,VWS V14.01,2013-01-09 17:51:00,
2013-01-09 12:56:00,36.7,31.1,29.78,WSW,248,30.0,42.0,80,0.00,,---,0.00,VWS V14.01,2013-01-09 17:56:00,
2013-01-09 13:01:00,36.6,31.0,29.77,WSW,244,26.0,42.0,80,0.00,,---,0.00,VWS V14.01,2013-01-09 18:01:00,
2013-01-09 13:06:00,36.6,31.0,29.77,WSW,253,29.0,42.0,80,0.00,,---,0.00,VWS V14.01,2013-01-09 18:06:00,
2013-01-09 13:11:00,36.6,30.7,29.77,WSW,254,21.0,42.0,79,0.00,,---,0.00,VWS V14.01,2013-01-09 18:11:00,
2013-01-09 13:16:00,36.6,30.7,29.77,WSW,246,24.0,42.0,79,0.00,,---,0.00,VWS V14.01,2013-01-09 18:16:00,
2013-01-09 13:21:00,36.5,30.6,29.78,West,268,25.0,42.0,79,0.00,,---,0.00,VWS V14.01,2013-01-09 18:21:00,
2013-01-09 13:26:00,36.6,30.4,29.78,West,260,16.0,42.0,78,0.00,,---,0.00,VWS V14.01,2013-01-09 18:26:00,
2013-01-09 13:31:00,36.4,30.2,29.78,West,261,27.0,27.0,78,0.00,,---,0.00,VWS V14.01,2013-01-09 18:31:00,
2013-01-09 13:36:00,36.2,30.0,29.78,West,266,22.0,28.0,78,0.00,,---,0.00,VWS V14.01,2013-01-09 18:36:00,
2013-01-09 13:41:00,36.1,29.9,29.78,WSW,256,24.0,28.0,78,0.00,,---,0.00,VWS V14.01,2013-01-09 18:41:00,
2013-01-09 13:42:00,36.1,29.9,29.78,WSW,252,23.0,28.0,78,0.00,,---,0.00,VWS V14.01,2013-01-09 18:42:00,
2013-01-09 13:44:00,36.2,29.7,29.79,WSW,254,23.0,28.0,77,0.00,,---,0.00,VWS V14.01,2013-01-09 18:44:00,
2013-01-09 13:48:00,36.2,29.7,29.79,WSW,255,20.0,28.0,77,0.00,,---,0.00,VWS V14.01,2013-01-09 18:48:00,
2013-01-09 13:54:00,36.2,29.4,29.80,WSW,241,31.0,33.0,76,0.00,,---,0.00,VWS V14.01,2013-01-09 18:54:00,
2013-01-09 13:59:00,36.1,29.6,29.80,WSW,245,39.0,39.0,77,0.00,,---,0.00,VWS V14.01,2013-01-09 18:59:00,
2013-01-09 14:04:00,35.9,29.7,29.80,WSW,248,22.0,39.0,78,0.00,,---,0.00,VWS V14.01,2013-01-09 19:04:00,
2013-01-09 14:09:00,35.9,29.7,29.81,SW,229,31.0,39.0,78,0.00,,---,0.00,VWS V14.01,2013-01-09 19:09:00,
2013-01-09 14:14:00,35.9,29.7,29.81,WSW,250,26.0,39.0,78,0.00,,---,0.00,VWS V14.01,2013-01-09 19:14:00,
2013-01-09 14:19:00,36.1,29.6,29.82,SW,236,29.0,39.0,77,0.00,,---,0.00,VWS V14.01,2013-01-09 19:19:00,
2013-01-09 14:24:00,36.1,29.6,29.82,WSW,245,28.0,39.0,77,0.00,,---,0.00,VWS V14.01,2013-01-09 19:24:00,
2013-01-09 14:29:00,36.1,29.6,29.82,SW,233,41.0,41.0,77,0.00,,---,0.00,VWS V14.01,2013-01-09 19:29:00,
2013-01-09 14:34:00,36.2,29.4,29.82,WSW,241,28.0,31.0,76,0.00,,---,0.00,VWS V14.01,2013-01-09 19:34:00,
2013-01-09 14:39:00,36.3,29.5,29.82,WSW,248,28.0,36.0,76,0.00,,---,0.00,VWS V14.01,2013-01-09 19:39:00,
2013-01-09 14:44:00,36.4,29.6,29.83,WSW,248,27.0,36.0,76,0.00,,---,0.00,VWS V14.01,2013-01-09 19:44:00,
2013-01-09 14:49:00,36.4,29.6,29.84,SW,231,30.0,36.0,76,0.00,,---,0.00,VWS V14.01,2013-01-09 19:49:00,
2013-01-09 14:54:00,36.6,29.4,29.84,SW,233,29.0,41.0,75,0.00,,---,0.00,VWS V14.01,2013-01-09 19:54:00,
2013-01-09 14:59:00,36.4,29.6,29.84,SW,230,32.0,41.0,76,0.00,,---,0.00,VWS V14.01,2013-01-09 19:59:00,
2013-01-09 15:04:00,36.2,29.7,29.85,WSW,237,31.0,41.0,77,0.00,,---,0.00,VWS V14.01,2013-01-09 20:04:00,
2013-01-09 15:09:00,36.0,29.8,29.85,WSW,241,20.0,41.0,78,0.00,,---,0.00,VWS V14.01,2013-01-09 20:09:00,
2013-01-09 15:14:00,36.1,29.9,29.86,SW,236,32.0,41.0,78,0.00,,---,0.00,VWS V14.01,2013-01-09 20:14:00,
2013-01-09 15:19:00,36.0,29.8,29.87,WSW,250,30.0,41.0,78,0.00,,---,0.00,VWS V14.01,2013-01-09 20:19:00,
2013-01-09 15:24:00,35.4,30.5,29.87,WSW,254,42.0,42.0,82,0.00,,---,0.00,VWS V14.01,2013-01-09 20:24:00,
2013-01-09 15:29:00,33.7,30.5,29.88,WSW,237,43.0,43.0,88,0.00,,---,0.00,VWS V14.01,2013-01-09 20:29:00,
2013-01-09 15:34:00,32.6,30.8,29.88,West,269,20.0,24.0,93,0.00,,---,0.00,VWS V14.01,2013-01-09 20:34:00,
2013-01-09 15:39:00,32.6,31.3,29.89,West,267,21.0,24.0,95,0.00,,---,0.00,VWS V14.01,2013-01-09 20:39:00,
2013-01-09 15:44:00,32.8,31.5,29.89,West,262,15.0,24.0,95,0.00,,---,0.00,VWS V14.01,2013-01-09 20:44:00,
2013-01-09 15:49:00,32.9,31.6,29.90,West,265,14.0,24.0,95,0.00,,---,0.00,VWS V14.01,2013-01-09 20:49:00,
2013-01-09 15:54:00,33.1,31.8,29.90,West,265,18.0,24.0,95,0.00,,---,0.00,VWS V14.01,2013-01-09 20:54:00,
2013-01-09 15:59:00,33.3,31.8,29.90,West,277,16.0,24.0,94,0.00,,---,0.00,VWS V14.01,2013-01-09 20:59:00,
2013-01-09 16:04:00,33.4,31.6,29.91,West,281,18.0,24.0,93,0.00,,---,0.00,VWS V14.01,2013-01-09 21:04:00,
2013-01-09 16:09:00,33.5,31.7,29.91,West,272,18.0,24.0,93,0.00,,---,0.00,VWS V14.01,2013-01-09 21:09:00,
2013-01-09 16:14:00,33.5,31.4,29.92,WNW,290,15.0,24.0,92,0.00,,---,0.00,VWS V14.01,2013-01-09 21:14:00,
2013-01-09 16:19:00,33.5,31.4,29.92,West,280,17.0,24.0,92,0.00,,---,0.00,VWS V14.01,2013-01-09 21:19:00,
2013-01-09 16:24:00,33.7,31.1,29.92,WNW,292,16.0,26.0,90,0.00,,---,0.00,VWS V14.01,2013-01-09 21:24:00,
2013-01-09 16:29:00,33.8,30.9,29.93,West,273,20.0,26.0,89,0.00,,---,0.00,VWS V14.01,2013-01-09 21:29:00,
2013-01-09 16:34:00,33.8,30.4,29.94,West,279,17.0,25.0,87,0.00,,---,0.00,VWS V14.01,2013-01-09 21:34:00,
2013-01-09 16:39:00,33.6,29.3,29.94,SW,221,22.0,28.0,84,0.00,,---,0.00,VWS V14.01,2013-01-09 21:39:00,
2013-01-09 16:44:00,33.6,29.3,29.95,SSW,210,18.0,28.0,84,0.00,,---,0.00,VWS V14.01,2013-01-09 21:44:00,
2013-01-09 16:49:00,33.7,29.1,29.95,SW,215,16.0,28.0,83,0.00,,---,0.00,VWS V14.01,2013-01-09 21:49:00,
2013-01-09 16:54:00,33.7,29.1,29.96,SW,222,16.0,28.0,83,0.00,,---,0.00,VWS V14.01,2013-01-09 21:54:00,
2013-01-09 16:59:00,34.0,28.8,29.97,SW,214,18.0,28.0,81,0.00,,---,0.00,VWS V14.01,2013-01-09 21:59:00,
2013-01-09 17:04:00,34.2,28.1,29.97,SW,216,19.0,32.0,78,0.00,,---,0.00,VWS V14.01,2013-01-09 22:04:00,
2013-01-09 17:10:00,34.3,27.5,29.97,SW,219,21.0,32.0,76,0.00,,---,0.00,VWS V14.01,2013-01-09 22:10:00,
2013-01-09 17:15:00,34.5,27.4,29.98,SW,227,25.0,32.0,75,0.00,,---,0.00,VWS V14.01,2013-01-09 22:15:00,
2013-01-09 17:20:00,34.4,27.6,29.99,SSW,192,18.0,32.0,76,0.00,,---,0.00,VWS V14.01,2013-01-09 22:20:00,
2013-01-09 17:25:00,34.3,27.5,29.99,SW,217,22.0,32.0,76,0.00,,---,0.00,VWS V14.01,2013-01-09 22:25:00,
2013-01-09 17:30:00,34.1,28.0,30.00,SSW,203,18.0,32.0,78,0.00,,---,0.00,VWS V14.01,2013-01-09 22:30:00,
2013-01-09 17:35:00,34.0,27.9,30.01,SSW,208,20.0,23.0,78,0.00,,---,0.00,VWS V14.01,2013-01-09 22:35:00,
2013-01-09 17:40:00,33.9,28.1,30.02,SW,234,25.0,25.0,79,0.00,,---,0.00,VWS V14.01,2013-01-09 22:40:00,
2013-01-09 17:45:00,33.9,28.1,30.02,SW,216,22.0,26.0,79,0.00,,---,0.00,VWS V14.01,2013-01-09 22:45:00,
2013-01-09 17:50:00,33.8,28.3,30.03,SW,225,24.0,28.0,80,0.00,,---,0.00,VWS V14.01,2013-01-09 22:50:00,
2013-01-09 17:55:00,33.7,28.2,30.03,WSW,237,25.0,29.0,80,0.00,,---,0.00,VWS V14.01,2013-01-09 22:55:00,
2013-01-09 18:00:00,33.7,28.5,30.04,WSW,239,26.0,29.0,81,0.00,,---,0.00,VWS V14.01,2013-01-09 23:00:00,
2013-01-09 18:05:00,33.6,28.4,30.05,SW,232,25.0,32.0,81,0.00,,---,0.00,VWS V14.01,2013-01-09 23:05:00,
2013-01-09 18:10:00,33.3,28.7,30.06,WSW,240,22.0,32.0,83,0.00,,---,0.00,VWS V14.01,2013-01-09 23:10:00,
2013-01-09 18:15:00,33.3,28.7,30.06,WSW,248,22.0,32.0,83,0.00,,---,0.00,VWS V14.01,2013-01-09 23:15:00,
2013-01-09 18:20:00,33.1,28.8,30.07,WSW,237,27.0,32.0,84,0.00,,---,0.00,VWS V14.01,2013-01-09 23:20:00,
2013-01-09 18:25:00,32.9,28.9,30.08,SW,235,22.0,32.0,85,0.00,,---,0.00,VWS V14.01,2013-01-09 23:25:00,
2013-01-09 18:30:00,32.9,28.9,30.08,SW,232,23.0,32.0,85,0.00,,---,0.00,VWS V14.01,2013-01-09 23:30:00,
2013-01-09 18:35:00,32.8,28.8,30.09,SW,232,22.0,26.0,85,0.00,,---,0.00,VWS V14.01,2013-01-09 23:35:00,
2013-01-09 18:40:00,32.9,28.6,30.09,SW,218,21.0,26.0,84,0.00,,---,0.00,VWS V14.01,2013-01-09 23:40:00,
2013-01-09 18:45:00,33.0,28.7,30.10,WSW,237,20.0,26.0,84,0.00,,---,0.00,VWS V14.01,2013-01-09 23:45:00,
2013-01-09 18:50:00,33.4,27.6,30.11,SW,226,24.0,27.0,79,0.00,,---,0.00,VWS V14.01,2013-01-09 23:50:00,
2013-01-09 18:55:00,33.8,27.0,30.11,SW,236,28.0,31.0,76,0.00,,---,0.00,VWS V14.01,2013-01-09 23:55:00,
2013-01-09 19:00:00,33.9,26.8,30.12,SW,233,26.0,31.0,75,0.00,,---,0.00,VWS V14.01,2013-01-10 00:00:00,
2013-01-09 19:05:00,33.7,26.6,30.12,SW,226,30.0,31.0,75,0.00,,---,0.00,VWS V14.01,2013-01-10 00:05:00,
2013-01-09 19:10:00,33.7,27.0,30.13,SW,219,22.0,31.0,76,0.00,,---,0.00,VWS V14.01,2013-01-10 00:10:00,
2013-01-09 19:15:00,33.6,26.9,30.13,SW,226,18.0,31.0,76,0.00,,---,0.00,VWS V14.01,2013-01-10 00:15:00,
2013-01-09 19:20:00,33.6,26.5,30.14,SW,235,17.0,31.0,75,0.00,,---,0.00,VWS V14.01,2013-01-10 00:20:00,
2013-01-09 19:25:00,33.6,26.9,30.14,SW,216,17.0,31.0,76,0.00,,---,0.00,VWS V14.01,2013-01-10 00:25:00,
2013-01-09 19:30:00,33.5,26.8,30.15,SW,214,17.0,31.0,76,0.00,,---,0.00,VWS V14.01,2013-01-10 00:30:00,
2013-01-09 19:35:00,33.6,26.9,30.15,SW,221,14.0,23.0,76,0.00,,---,0.00,VWS V14.01,2013-01-10 00:35:00,
2013-01-09 19:40:00,33.6,27.2,30.16,SSW,213,17.0,27.0,77,0.00,,---,0.00,VWS V14.01,2013-01-10 00:40:00,
2013-01-09 19:45:00,33.7,27.0,30.16,SW,225,18.0,27.0,76,0.00,,---,0.00,VWS V14.01,2013-01-10 00:45:00,
2013-01-09 19:50:00,33.8,26.7,30.17,SW,221,16.0,27.0,75,0.00,,---,0.00,VWS V14.01,2013-01-10 00:50:00,
2013-01-09 19:55:00,33.9,26.8,30.17,SSW,210,14.0,27.0,75,0.00,,---,0.00,VWS V14.01,2013-01-10 00:55:00,
2013-01-09 20:01:00,34.0,26.9,30.18,SW,231,19.0,27.0,75,0.00,,---,0.00,VWS V14.01,2013-01-10 01:01:00,
2013-01-09 20:06:00,34.1,27.0,30.18,SSW,212,17.0,28.0,75,0.00,,---,0.00,VWS V14.01,2013-01-10 01:06:00,
2013-01-09 20:10:00,34.0,26.6,30.18,SSW,206,11.0,28.0,74,0.00,,---,0.00,VWS V14.01,2013-01-10 01:10:00,
2013-01-09 20:16:00,34.0,26.6,30.19,SW,223,15.0,28.0,74,0.00,,---,0.00,VWS V14.01,2013-01-10 01:16:00,
2013-01-09 20:21:00,34.2,26.8,30.20,SW,229,17.0,28.0,74,0.00,,---,0.00,VWS V14.01,2013-01-10 01:21:00,
2013-01-09 20:26:00,34.1,27.0,30.19,SSW,212,15.0,28.0,75,0.00,,---,0.00,VWS V14.01,2013-01-10 01:26:00,
2013-01-09 20:31:00,34.0,27.2,30.20,SSW,200,14.0,28.0,76,0.00,,---,0.00,VWS V14.01,2013-01-10 01:31:00,
2013-01-09 20:36:00,34.0,27.6,30.19,SW,214,8.0,18.0,77,0.00,,---,0.00,VWS V14.01,2013-01-10 01:36:00,
2013-01-09 20:41:00,34.0,27.6,30.19,SW,219,13.0,20.0,77,0.00,,---,0.00,VWS V14.01,2013-01-10 01:41:00,
2013-01-09 20:46:00,34.0,27.6,30.20,WSW,239,17.0,20.0,77,0.00,,---,0.00,VWS V14.01,2013-01-10 01:46:00,
2013-01-09 20:51:00,34.0,27.6,30.20,SSW,202,10.0,20.0,77,0.00,,---,0.00,VWS V14.01,2013-01-10 01:51:00,
2013-01-09 20:56:00,34.0,27.6,30.20,SW,223,13.0,20.0,77,0.00,,---,0.00,VWS V14.01,2013-01-10 01:56:00,
2013-01-09 21:01:00,33.9,27.8,30.21,SW,217,16.0,20.0,78,0.00,,---,0.00,VWS V14.01,2013-01-10 02:01:00,
2013-01-09 21:06:00,34.0,27.9,30.21,SW,219,17.0,20.0,78,0.00,,---,0.00,VWS V14.01,2013-01-10 02:06:00,
2013-01-09 21:11:00,33.9,27.8,30.21,SSW,204,8.0,20.0,78,0.00,,---,0.00,VWS V14.01,2013-01-10 02:11:00,
2013-01-09 21:16:00,33.9,27.8,30.21,SW,226,12.0,20.0,78,0.00,,---,0.00,VWS V14.01,2013-01-10 02:16:00,
2013-01-09 21:21:00,33.9,28.1,30.22,SW,221,16.0,20.0,79,0.00,,---,0.00,VWS V14.01,2013-01-10 02:21:00,
2013-01-09 21:26:00,34.0,27.9,30.22,SW,223,9.0,20.0,78,0.00,,---,0.00,VWS V14.01,2013-01-10 02:26:00,
2013-01-09 21:31:00,34.2,27.8,30.22,SW,224,12.0,12.0,77,0.00,,---,0.00,VWS V14.01,2013-01-10 02:31:00,
2013-01-09 21:36:00,34.2,27.8,30.23,SW,216,20.0,21.0,77,0.00,,---,0.00,VWS V14.01,2013-01-10 02:36:00,
2013-01-09 21:41:00,34.3,27.5,30.23,SW,218,15.0,21.0,76,0.00,,---,0.00,VWS V14.01,2013-01-10 02:41:00,
2013-01-09 21:46:00,34.4,27.6,30.23,SW,215,20.0,21.0,76,0.00,,---,0.00,VWS V14.01,2013-01-10 02:46:00,
2013-01-09 21:51:00,34.4,27.6,30.23,SSW,205,13.0,21.0,76,0.00,,---,0.00,VWS V14.01,2013-01-10 02:51:00,
2013-01-09 21:56:00,34.5,27.4,30.23,WSW,249,14.0,21.0,75,0.00,,---,0.00,VWS V14.01,2013-01-10 02:56:00,
2013-01-09 22:01:00,34.8,28.0,30.24,West,264,17.0,21.0,76,0.00,,---,0.00,VWS V14.01,2013-01-10 03:01:00,
2013-01-09 22:06:00,34.8,28.0,30.24,WSW,254,17.0,22.0,76,0.00,,---,0.00,VWS V14.01,2013-01-10 03:06:00,
2013-01-09 22:11:00,34.8,28.3,30.24,West,259,19.0,22.0,77,0.00,,---,0.00,VWS V14.01,2013-01-10 03:11:00,
2013-01-09 22:16:00,34.9,28.1,30.25,West,278,20.0,22.0,76,0.00,,---,0.00,VWS V14.01,2013-01-10 03:16:00,
2013-01-09 22:21:00,35.0,28.2,30.25,West,260,17.0,22.0,76,0.00,,---,0.00,VWS V14.01,2013-01-10 03:21:00,
2013-01-09 22:26:00,35.1,28.3,30.25,West,268,22.0,22.0,76,0.00,,---,0.00,VWS V14.01,2013-01-10 03:26:00,
2013-01-09 22:31:00,35.3,28.2,30.25,WNW,285,17.0,17.0,75,0.00,,---,0.00,VWS V14.01,2013-01-10 03:31:00,
2013-01-09 22:36:00,35.3,28.2,30.25,WNW,293,17.0,24.0,75,0.00,,---,0.00,VWS V14.01,2013-01-10 03:36:00,
2013-01-09 22:41:00,35.3,28.2,30.25,West,281,17.0,24.0,75,0.00,,---,0.00,VWS V14.01,2013-01-10 03:41:00,
2013-01-09 22:46:00,35.4,28.3,30.25,West,273,17.0,24.0,75,0.00,,---,0.00,VWS V14.01,2013-01-10 03:46:00,
2013-01-09 22:51:00,35.4,28.3,30.26,West,275,20.0,24.0,75,0.00,,---,0.00,VWS V14.01,2013-01-10 03:51:00,
2013-01-09 22:57:00,35.5,28.4,30.26,West,275,22.0,26.0,75,0.00,,---,0.00,VWS V14.01,2013-01-10 03:57:00,
2013-01-09 23:02:00,35.5,28.4,30.27,West,263,23.0,27.0,75,0.00,,---,0.00,VWS V14.01,2013-01-10 04:02:00,
2013-01-09 23:07:00,35.1,28.3,30.27,SW,217,16.0,27.0,76,0.00,,---,0.00,VWS V14.01,2013-01-10 04:07:00,
2013-01-09 23:12:00,35.2,28.1,30.28,SSW,195,15.0,27.0,75,0.00,,---,0.00,VWS V14.01,2013-01-10 04:12:00,
2013-01-09 23:17:00,35.2,28.1,30.29,SW,224,19.0,27.0,75,0.00,,---,0.00,VWS V14.01,2013-01-10 04:17:00,
2013-01-09 23:22:00,35.2,28.1,30.29,WSW,238,19.0,27.0,75,0.00,,---,0.00,VWS V14.01,2013-01-10 04:22:00,
2013-01-09 23:27:00,35.2,28.1,30.29,SW,221,14.0,27.0,75,0.00,,---,0.00,VWS V14.01,2013-01-10 04:27:00,
2013-01-09 23:32:00,35.2,27.8,30.30,SSW,212,13.0,13.0,74,0.00,,---,0.00,VWS V14.01,2013-01-10 04:32:00,
2013-01-09 23:37:00,35.2,27.8,30.31,SW,222,19.0,22.0,74,0.00,,---,0.00,VWS V14.01,2013-01-10 04:37:00,
2013-01-09 23:42:00,35.2,28.1,30.31,SW,219,18.0,23.0,75,0.00,,---,0.00,VWS V14.01,2013-01-10 04:42:00,
2013-01-09 23:47:00,35.1,28.0,30.32,SW,222,19.0,23.0,75,0.00,,---,0.00,VWS V14.01,2013-01-10 04:47:00,
2013-01-09 23:52:00,35.1,28.0,30.32,SW,220,18.0,23.0,75,0.00,,---,0.00,VWS V14.01,2013-01-10 04:52:00,
2013-01-09 23:57:00,35.0,28.2,30.32,SW,227,25.0,25.0,76,0.00,,---,0.00,VWS V14.01,2013-01-10 04:57:00,